Location: Newark
(21.8258°S, 114.1586°E)
Time: 23:32:10
(UTC+00:00)

Hubble Space Telescope - Pass Details

Date: 19 December 2019
Orbit: 536 x 540 km, 28.5° (Epoch: 20 January)

Event Time Altitude Azimuth Distance (km) Brightness Sun altitude
Rises 11:36:12 0° 248° (WSW) 2,686 6.7 -7.4°
Reaches altitude 10° 11:38:30 10° 243° (WSW) 1,794 5.2 -7.9°
Maximum altitude 11:42:35 55° 165° (SSE) 648 1.3 -8.7°
Drops below altitude 10° 11:46:39 10° 86° (E) 1,787 2.9 -9.5°
Enters shadow 11:46:39 10° 86° (E) 1,787 2.9 -9.5°
